Time,TemperatureF,DewpointF,PressureIn,WindDirection,WindDirectionDegrees,WindSpeedMPH,WindSpeedGustMPH,Humidity,HourlyPrecipIn,Conditions,Clouds,dailyrainin,SoftwareType,DateUTC
2013-02-02 00:02:00,20.0,-99.9,30.19,South,180,14.0,18.0,-999,0.00,,,0.00,,2013-02-02 06:02:00,
2013-02-02 00:12:00,20.0,-99.9,30.19,South,180,14.0,18.0,-999,0.00,,,0.00,,2013-02-02 06:12:00,
2013-02-02 00:22:00,20.0,-99.9,30.19,South,180,13.0,20.0,-999,0.00,,,0.00,,2013-02-02 06:22:00,
2013-02-02 00:32:00,20.0,-99.9,30.18,South,180,15.0,21.0,-999,0.00,,,0.00,,2013-02-02 06:32:00,
2013-02-02 00:42:00,20.0,-99.9,30.18,South,180,15.0,21.0,-999,0.00,,,0.00,,2013-02-02 06:42:00,
2013-02-02 00:52:00,20.0,-99.9,30.17,South,180,16.0,24.0,-999,0.00,,,0.00,,2013-02-02 06:52:00,
2013-02-02 01:02:00,19.0,-99.9,30.17,South,180,16.0,18.0,-999,0.00,,,0.00,,2013-02-02 07:02:00,
2013-02-02 01:12:00,19.0,-99.9,30.17,South,180,12.0,20.0,-999,0.00,,,0.00,,2013-02-02 07:12:00,
2013-02-02 01:21:00,19.0,-99.9,30.17,South,180,12.0,20.0,-999,0.00,,,0.00,,2013-02-02 07:21:00,
2013-02-02 01:32:00,20.0,-99.9,30.18,South,180,10.0,15.0,-999,0.00,,,0.00,,2013-02-02 07:32:00,
2013-02-02 01:42:00,20.0,-99.9,30.18,South,180,10.0,15.0,-999,0.00,,,0.00,,2013-02-02 07:42:00,
2013-02-02 01:52:00,20.0,-99.9,30.18,SSW,203,8.0,15.0,-999,0.00,,,0.00,,2013-02-02 07:52:00,
2013-02-02 02:01:00,20.0,-99.9,30.20,SW,225,9.0,13.0,-999,0.00,,,0.00,,2013-02-02 08:01:00,
2013-02-02 02:11:00,20.0,-99.9,30.20,SW,225,9.0,13.0,-999,0.00,,,0.00,,2013-02-02 08:11:00,
2013-02-02 02:21:00,20.0,-99.9,30.17,South,180,8.0,10.0,-999,0.00,,,0.00,,2013-02-02 08:21:00,
2013-02-02 02:32:00,20.0,-99.9,30.17,South,180,8.0,9.0,-999,0.00,,,0.00,,2013-02-02 08:32:00,
2013-02-02 02:42:00,20.0,-99.9,30.17,South,180,8.0,9.0,-999,0.00,,,0.00,,2013-02-02 08:42:00,
2013-02-02 02:53:00,20.0,-99.9,30.16,South,180,8.0,9.0,-999,0.00,,,0.00,,2013-02-02 08:53:00,
2013-02-02 03:02:00,20.0,-99.9,30.15,South,180,9.0,10.0,-999,0.00,,,0.00,,2013-02-02 09:02:00,
2013-02-02 03:11:00,20.0,-99.9,30.15,South,180,9.0,10.0,-999,0.00,,,0.00,,2013-02-02 09:11:00,
2013-02-02 03:22:00,21.0,-99.9,30.14,South,180,9.0,12.0,-999,0.00,,,0.00,,2013-02-02 09:22:00,
2013-02-02 03:32:00,20.0,-99.9,30.14,South,180,9.0,12.0,-999,0.00,,,0.00,,2013-02-02 09:32:00,
2013-02-02 03:42:00,20.0,-99.9,30.14,South,180,9.0,12.0,-999,0.00,,,0.00,,2013-02-02 09:42:00,
2013-02-02 03:52:00,21.0,-99.9,30.12,South,180,10.0,12.0,-999,0.00,,,0.00,,2013-02-02 09:52:00,
2013-02-02 04:02:00,20.0,-99.9,30.11,South,180,10.0,14.0,-999,0.00,,,0.00,,2013-02-02 10:02:00,
2013-02-02 04:11:00,20.0,-99.9,30.11,South,180,10.0,14.0,-999,0.00,,,0.00,,2013-02-02 10:11:00,
2013-02-02 04:21:00,20.0,-99.9,30.11,South,180,10.0,14.0,-999,0.00,,,0.00,,2013-02-02 10:21:00,
2013-02-02 04:32:00,21.0,-99.9,30.10,South,180,15.0,18.0,-999,0.00,,,0.00,,2013-02-02 10:32:00,
2013-02-02 04:42:00,21.0,-99.9,30.10,South,180,15.0,18.0,-999,0.00,,,0.00,,2013-02-02 10:42:00,
2013-02-02 04:52:00,21.0,-99.9,30.09,South,180,13.0,18.0,-999,0.00,,,0.00,,2013-02-02 10:52:00,
2013-02-02 05:02:00,21.0,-99.9,30.08,South,180,13.0,17.0,-999,0.00,,,0.00,,2013-02-02 11:02:00,
2013-02-02 05:11:00,21.0,-99.9,30.08,South,180,13.0,16.0,-999,0.00,,,0.00,,2013-02-02 11:11:00,
2013-02-02 05:22:00,21.0,-99.9,30.08,South,180,13.0,16.0,-999,0.00,,,0.00,,2013-02-02 11:22:00,
2013-02-02 05:32:00,21.0,-99.9,30.07,South,180,14.0,16.0,-999,0.00,,,0.00,,2013-02-02 11:32:00,
2013-02-02 05:42:00,21.0,-99.9,30.07,South,180,14.0,16.0,-999,0.00,,,0.00,,2013-02-02 11:42:00,
2013-02-02 05:52:00,21.0,-99.9,30.07,South,180,14.0,16.0,-999,0.00,,,0.00,,2013-02-02 11:52:00,
2013-02-02 06:02:00,21.0,-99.9,30.05,South,180,13.0,20.0,-999,0.00,,,0.00,,2013-02-02 12:02:00,
2013-02-02 06:11:00,21.0,-99.9,30.05,South,180,13.0,20.0,-999,0.00,,,0.00,,2013-02-02 12:11:00,
2013-02-02 06:22:00,21.0,-99.9,30.05,South,180,14.0,17.0,-999,0.00,,,0.00,,2013-02-02 12:22:00,
2013-02-02 06:32:00,21.0,-99.9,30.05,South,180,14.0,21.0,-999,0.00,,,0.00,,2013-02-02 12:32:00,
2013-02-02 06:42:00,21.0,-99.9,30.05,South,180,14.0,21.0,-999,0.00,,,0.00,,2013-02-02 12:42:00,
2013-02-02 06:53:00,22.0,-99.9,30.04,South,180,16.0,20.0,-999,0.00,,,0.00,,2013-02-02 12:53:00,
2013-02-02 07:03:00,22.0,-99.9,30.04,South,180,13.0,18.0,-999,0.00,,,0.00,,2013-02-02 13:03:00,
2013-02-02 07:11:00,22.0,-99.9,30.04,South,180,13.0,18.0,-999,0.00,,,0.00,,2013-02-02 13:11:00,
2013-02-02 07:22:00,22.0,-99.9,30.03,South,180,14.0,17.0,-999,0.00,,,0.00,,2013-02-02 13:22:00,
2013-02-02 07:33:00,22.0,-99.9,30.03,South,180,13.0,17.0,-999,0.00,,,0.00,,2013-02-02 13:33:00,
2013-02-02 07:42:00,22.0,-99.9,30.03,South,180,13.0,17.0,-999,0.00,,,0.00,,2013-02-02 13:42:00,
2013-02-02 07:52:00,22.0,-99.9,30.03,South,180,14.0,18.0,-999,0.00,,,0.00,,2013-02-02 13:52:00,
2013-02-02 08:03:00,23.0,-99.9,30.03,SSW,203,10.0,13.0,-999,0.00,,,0.00,,2013-02-02 14:03:00,
2013-02-02 08:12:00,23.0,-99.9,30.03,SSW,203,10.0,13.0,-999,0.00,,,0.00,,2013-02-02 14:12:00,
2013-02-02 08:22:00,24.0,-99.9,30.04,SSW,203,13.0,16.0,-999,0.00,,,0.00,,2013-02-02 14:22:00,
2013-02-02 08:33:00,24.0,-99.9,30.03,SSW,203,12.0,16.0,-999,0.00,,,0.00,,2013-02-02 14:33:00,
2013-02-02 08:42:00,24.0,-99.9,30.03,SSW,203,12.0,16.0,-999,0.00,,,0.00,,2013-02-02 14:42:00,
2013-02-02 08:52:00,24.0,-99.9,30.03,SSW,203,13.0,18.0,-999,0.00,,,0.00,,2013-02-02 14:52:00,
2013-02-02 09:03:00,24.0,-99.9,30.03,SW,225,12.0,17.0,-999,0.00,,,0.00,,2013-02-02 15:03:00,
2013-02-02 09:13:00,24.0,-99.9,30.03,SW,225,12.0,17.0,-999,0.00,,,0.00,,2013-02-02 15:13:00,
2013-02-02 09:22:00,25.0,-99.9,30.02,SW,225,14.0,17.0,-999,0.00,,,0.00,,2013-02-02 15:22:00,
2013-02-02 09:33:00,25.0,-99.9,30.02,SW,225,15.0,20.0,-999,0.00,,,0.00,,2013-02-02 15:33:00,
2013-02-02 09:42:00,25.0,-99.9,30.02,SW,225,15.0,20.0,-999,0.00,,,0.00,,2013-02-02 15:42:00,
2013-02-02 09:52:00,25.0,-99.9,30.02,SW,225,14.0,17.0,-999,0.00,,,0.00,,2013-02-02 15:52:00,
2013-02-02 10:03:00,26.0,-99.9,30.01,SW,225,14.0,17.0,-999,0.00,,,0.00,,2013-02-02 16:03:00,
2013-02-02 10:12:00,26.0,-99.9,30.01,SW,225,14.0,17.0,-999,0.00,,,0.00,,2013-02-02 16:12:00,
2013-02-02 10:23:00,27.0,-99.9,30.01,SW,225,12.0,16.0,-999,0.00,,,0.00,,2013-02-02 16:23:00,
2013-02-02 10:32:00,27.0,-99.9,30.02,SW,225,12.0,16.0,-999,0.00,,,0.00,,2013-02-02 16:32:00,
2013-02-02 10:42:00,27.0,-99.9,30.02,SW,225,12.0,16.0,-999,0.00,,,0.00,,2013-02-02 16:42:00,
2013-02-02 10:52:00,28.0,-99.9,30.02,WSW,248,7.0,17.0,-999,0.00,,,0.00,,2013-02-02 16:52:00,
2013-02-02 11:03:00,29.0,-99.9,30.01,WSW,248,9.0,15.0,-999,0.00,,,0.00,,2013-02-02 17:03:00,
2013-02-02 11:11:00,29.0,-99.9,30.01,WSW,248,9.0,15.0,-999,0.00,,,0.00,,2013-02-02 17:11:00,
2013-02-02 11:23:00,30.0,-99.9,30.01,WSW,248,7.0,15.0,-999,0.00,,,0.00,,2013-02-02 17:23:00,
2013-02-02 11:33:00,30.0,-99.9,30.01,West,270,9.0,15.0,-999,0.00,,,0.00,,2013-02-02 17:33:00,
2013-02-02 11:42:00,30.0,-99.9,30.01,West,270,9.0,15.0,-999,0.00,,,0.00,,2013-02-02 17:42:00,
2013-02-02 11:53:00,30.0,-99.9,30.01,West,270,10.0,17.0,-999,0.03,,,0.03,,2013-02-02 17:53:00,
2013-02-02 12:03:00,30.0,-99.9,30.00,WNW,293,8.0,16.0,-999,0.03,,,0.03,,2013-02-02 18:03:00,
2013-02-02 12:12:00,30.0,-99.9,30.00,WNW,293,8.0,16.0,-999,0.03,,,0.03,,2013-02-02 18:12:00,
2013-02-02 12:22:00,30.0,-99.9,30.00,WNW,293,8.0,15.0,-999,0.04,,,0.04,,2013-02-02 18:22:00,
2013-02-02 12:32:00,30.0,-99.9,29.99,WNW,293,9.0,13.0,-999,0.04,,,0.04,,2013-02-02 18:32:00,
2013-02-02 12:42:00,30.0,-99.9,29.99,WNW,293,9.0,13.0,-999,0.04,,,0.04,,2013-02-02 18:42:00,
2013-02-02 12:52:00,30.0,-99.9,29.99,West,270,6.0,13.0,-999,0.01,,,0.04,,2013-02-02 18:52:00,
2013-02-02 13:02:00,30.0,-99.9,29.99,WNW,293,6.0,13.0,-999,0.01,,,0.04,,2013-02-02 19:02:00,
2013-02-02 13:12:00,30.0,-99.9,29.99,West,270,9.0,14.0,-999,0.00,,,0.04,,2013-02-02 19:12:00,
2013-02-02 13:22:00,30.0,-99.9,29.99,West,270,9.0,14.0,-999,0.00,,,0.04,,2013-02-02 19:22:00,
2013-02-02 13:33:00,29.0,-99.9,29.99,WNW,293,7.0,13.0,-999,0.00,,,0.04,,2013-02-02 19:33:00,
2013-02-02 13:42:00,29.0,-99.9,29.99,WNW,293,7.0,13.0,-999,0.00,,,0.04,,2013-02-02 19:42:00,
2013-02-02 13:52:00,30.0,-99.9,29.99,West,270,8.0,10.0,-999,0.00,,,0.04,,2013-02-02 19:52:00,
2013-02-02 14:02:00,29.0,-99.9,29.99,West,270,7.0,13.0,-999,0.00,,,0.04,,2013-02-02 20:02:00,
2013-02-02 14:12:00,29.0,-99.9,29.99,West,270,7.0,13.0,-999,0.00,,,0.04,,2013-02-02 20:12:00,
2013-02-02 14:22:00,29.0,-99.9,30.00,WNW,293,7.0,13.0,-999,0.00,,,0.04,,2013-02-02 20:22:00,
2013-02-02 14:32:00,29.0,-99.9,30.00,WNW,293,8.0,14.0,-999,0.00,,,0.04,,2013-02-02 20:32:00,
2013-02-02 14:42:00,29.0,-99.9,30.00,WNW,293,8.0,14.0,-999,0.00,,,0.04,,2013-02-02 20:42:00,
2013-02-02 14:52:00,29.0,-99.9,30.01,WNW,293,9.0,14.0,-999,0.00,,,0.04,,2013-02-02 20:52:00,
2013-02-02 15:02:00,28.0,-99.9,30.01,West,270,7.0,15.0,-999,0.00,,,0.04,,2013-02-02 21:02:00,
2013-02-02 15:11:00,28.0,-99.9,30.01,West,270,7.0,15.0,-999,0.00,,,0.04,,2013-02-02 21:11:00,
2013-02-02 15:22:00,29.0,-99.9,30.01,WNW,293,7.0,13.0,-999,0.00,,,0.04,,2013-02-02 21:22:00,
2013-02-02 15:32:00,28.0,-99.9,30.01,WNW,293,7.0,10.0,-999,0.00,,,0.04,,2013-02-02 21:32:00,
2013-02-02 15:43:00,28.0,-99.9,30.01,WNW,293,7.0,10.0,-999,0.00,,,0.04,,2013-02-02 21:43:00,
2013-02-02 15:52:00,27.0,-99.9,30.02,WNW,293,6.0,16.0,-999,0.00,,,0.04,,2013-02-02 21:52:00,
2013-02-02 16:03:00,26.0,-99.9,30.03,NNW,338,8.0,14.0,-999,0.00,,,0.04,,2013-02-02 22:03:00,
2013-02-02 16:12:00,26.0,-99.9,30.03,NNW,338,8.0,14.0,-999,0.00,,,0.04,,2013-02-02 22:12:00,
2013-02-02 16:22:00,24.0,-99.9,30.04,NW,315,8.0,17.0,-999,0.00,,,0.04,,2013-02-02 22:22:00,
2013-02-02 16:32:00,23.0,-99.9,30.05,NNW,338,12.0,17.0,-999,0.00,,,0.04,,2013-02-02 22:32:00,
2013-02-02 16:42:00,23.0,-99.9,30.05,NNW,338,12.0,17.0,-999,0.00,,,0.04,,2013-02-02 22:42:00,
2013-02-02 16:52:00,22.0,-99.9,30.06,NW,315,13.0,18.0,-999,0.00,,,0.04,,2013-02-02 22:52:00,
2013-02-02 17:02:00,21.0,-99.9,30.06,NNW,338,10.0,17.0,-999,0.00,,,0.04,,2013-02-02 23:02:00,
2013-02-02 17:11:00,21.0,-99.9,30.06,NNW,338,10.0,17.0,-999,0.00,,,0.04,,2013-02-02 23:11:00,
2013-02-02 17:22:00,21.0,-99.9,30.06,NNW,338,7.0,15.0,-999,0.00,,,0.04,,2013-02-02 23:22:00,
2013-02-02 17:32:00,20.0,-99.9,30.06,NW,315,9.0,15.0,-999,0.00,,,0.04,,2013-02-02 23:32:00,
2013-02-02 17:42:00,20.0,-99.9,30.06,NW,315,9.0,15.0,-999,0.00,,,0.04,,2013-02-02 23:42:00,
2013-02-02 17:52:00,20.0,-99.9,30.07,NW,315,7.0,16.0,-999,0.00,,,0.04,,2013-02-02 23:52:00,
2013-02-02 18:02:00,19.0,-99.9,30.07,WNW,293,5.0,16.0,-999,0.00,,,0.04,,2013-02-03 00:02:00,
2013-02-02 18:11:00,19.0,-99.9,30.07,WNW,293,5.0,16.0,-999,0.00,,,0.04,,2013-02-03 00:11:00,
2013-02-02 18:22:00,19.0,-99.9,30.08,NW,315,8.0,10.0,-999,0.00,,,0.04,,2013-02-03 00:22:00,
2013-02-02 18:32:00,18.0,-99.9,30.09,WNW,293,7.0,10.0,-999,0.00,,,0.04,,2013-02-03 00:32:00,
2013-02-02 18:42:00,18.0,-99.9,30.09,WNW,293,7.0,10.0,-999,0.00,,,0.04,,2013-02-03 00:42:00,
2013-02-02 18:52:00,18.0,-99.9,30.09,WNW,293,6.0,12.0,-999,0.00,,,0.04,,2013-02-03 00:52:00,
2013-02-02 19:02:00,17.0,-99.9,30.09,WNW,293,6.0,12.0,-999,0.00,,,0.04,,2013-02-03 01:02:00,
2013-02-02 19:11:00,16.0,-99.9,30.10,NW,315,5.0,9.0,-999,0.00,,,0.04,,2013-02-03 01:11:00,
2013-02-02 19:21:00,16.0,-99.9,30.10,NW,315,5.0,9.0,-999,0.00,,,0.04,,2013-02-03 01:21:00,
2013-02-02 19:32:00,16.0,-99.9,30.10,NW,315,5.0,9.0,-999,0.00,,,0.04,,2013-02-03 01:32:00,
2013-02-02 19:42:00,16.0,-99.9,30.10,NW,315,5.0,9.0,-999,0.00,,,0.04,,2013-02-03 01:42:00,
2013-02-02 19:52:00,16.0,-99.9,30.09,WNW,293,5.0,13.0,-999,0.00,,,0.04,,2013-02-03 01:52:00,
2013-02-02 20:01:00,17.0,-99.9,30.09,NNW,338,6.0,10.0,-999,0.00,,,0.04,,2013-02-03 02:01:00,
2013-02-02 20:11:00,17.0,-99.9,30.09,NNW,338,6.0,10.0,-999,0.00,,,0.04,,2013-02-03 02:11:00,
2013-02-02 20:22:00,17.0,-99.9,30.09,NNW,338,6.0,13.0,-999,0.00,,,0.04,,2013-02-03 02:22:00,
2013-02-02 20:32:00,16.0,-99.9,30.09,NW,315,8.0,13.0,-999,0.00,,,0.04,,2013-02-03 02:32:00,
2013-02-02 20:42:00,16.0,-99.9,30.09,NW,315,8.0,13.0,-999,0.00,,,0.04,,2013-02-03 02:42:00,
2013-02-02 20:53:00,15.0,-99.9,30.09,NNW,338,5.0,10.0,-999,0.00,,,0.04,,2013-02-03 02:53:00,
2013-02-02 21:02:00,15.0,-99.9,30.09,NW,315,5.0,10.0,-999,0.00,,,0.04,,2013-02-03 03:02:00,
2013-02-02 21:11:00,15.0,-99.9,30.09,North,0,3.0,8.0,-999,0.00,,,0.04,,2013-02-03 03:11:00,
2013-02-02 21:22:00,15.0,-99.9,30.09,North,0,3.0,8.0,-999,0.00,,,0.04,,2013-02-03 03:22:00,
2013-02-02 21:32:00,15.0,-99.9,30.08,NNW,338,5.0,8.0,-999,0.00,,,0.04,,2013-02-03 03:32:00,
2013-02-02 21:42:00,15.0,-99.9,30.08,NNW,338,5.0,8.0,-999,0.00,,,0.04,,2013-02-03 03:42:00,
2013-02-02 21:52:00,15.0,-99.9,30.10,NW,315,5.0,9.0,-999,0.00,,,0.04,,2013-02-03 03:52:00,
2013-02-02 22:01:00,15.0,-99.9,30.09,NNW,338,3.0,7.0,-999,0.00,,,0.04,,2013-02-03 04:01:00,
2013-02-02 22:11:00,15.0,-99.9,30.09,NW,315,3.0,7.0,-999,0.00,,,0.04,,2013-02-03 04:11:00,
2013-02-02 22:22:00,15.0,-99.9,30.09,NW,315,3.0,7.0,-999,0.00,,,0.04,,2013-02-03 04:22:00,
2013-02-02 22:32:00,15.0,-99.9,30.08,West,270,0.0,5.0,-999,0.00,,,0.04,,2013-02-03 04:32:00,
2013-02-02 22:42:00,15.0,-99.9,30.08,West,270,0.0,5.0,-999,0.00,,,0.04,,2013-02-03 04:42:00,
2013-02-02 22:52:00,15.0,-99.9,30.08,West,270,0.0,0.0,-999,0.00,,,0.04,,2013-02-03 04:52:00,
2013-02-02 23:04:00,14.0,-99.9,30.07,West,270,0.0,0.0,-999,0.00,,,0.04,,2013-02-03 05:04:00,
2013-02-02 23:12:00,14.0,-99.9,30.07,West,270,0.0,0.0,-999,0.00,,,0.04,,2013-02-03 05:12:00,
2013-02-02 23:22:00,13.0,-99.9,30.07,West,270,0.0,0.0,-999,0.00,,,0.04,,2013-02-03 05:22:00,
2013-02-02 23:32:00,12.0,-99.9,30.05,West,270,0.0,0.0,-999,0.00,,,0.04,,2013-02-03 05:32:00,
2013-02-02 23:42:00,12.0,-99.9,30.05,West,270,0.0,0.0,-999,0.00,,,0.04,,2013-02-03 05:42:00,
2013-02-02 23:53:00,11.0,-99.9,30.05,West,270,0.0,0.0,-999,0.00,,,0.04,,2013-02-03 05:53:00,